Location: Chassagnes
(44.4047°N, 4.1657°E)
Time: 12:48:45
(UTC+00:00)

CZ-4C R/B - Pass Details

Date: 27 October 2020
Orbit: 624 x 1378 km, 63.4° (Epoch: 23 November)

Event Time Altitude Azimuth Distance (km) Brightness Sun altitude
Rises 17:32:26 0° 316° (NW) 3,540 6.0 -10.1°
Reaches altitude 10° 17:35:57 10° 337° (NNW) 2,750 5.1 -10.7°
Maximum altitude 17:39:54 16° 15° (NNE) 2,475 4.4 -11.4°
Drops below altitude 10° 17:44:16 10° 52° (NE) 3,081 4.6 -12.2°
Enters shadow 17:44:24 10° 52° (NE) 3,110 4.6 -12.2°
